| time (UTC) | temp C | wind direction | speed KPH | gust KPH | rain 1hr cm | rain 24hr cm | rain mn cm | humidity % | barometer mb |
| 20260507171551 | 10 | 283 | 1.6 | 14.5 | 0.00 | 0.51 | 0.00 | 80 | 1005.1 |
| 20260507170049 | 10 | 263 | 1.6 | 12.9 | 0.00 | 0.51 | 0.00 | 78 | 1005.1 |
| 20260507164544 | 10 | 300 | 1.6 | 6.4 | 0.00 | 0.51 | 0.00 | 75 | 1005.0 |
| 20260507163041 | 11 | 254 | 1.6 | 12.9 | 0.00 | 0.51 | 0.00 | 73 | 1005.0 |
| 20260507161542 | 11 | 254 | 4.8 | 12.9 | 0.00 | 0.51 | 0.00 | 74 | 1005.2 |
| 20260507160036 | 11 | 287 | 3.2 | 17.7 | 0.00 | 0.51 | 0.00 | 73 | 1005.0 |
| 20260507154536 | 12 | 250 | 1.6 | 14.5 | 0.00 | 0.51 | 0.00 | 69 | 1004.9 |
| 20260507153040 | 13 | 226 | 6.4 | 14.5 | 0.00 | 0.51 | 0.00 | 61 | 1004.7 |
| 20260507151532 | 14 | 247 | 4.8 | 19.3 | 0.00 | 0.51 | 0.00 | 63 | 1004.4 |
| 20260507150032 | 13 | 231 | 6.4 | 14.5 | 0.00 | 0.51 | 0.00 | 62 | 1004.1 |
| 20260507144527 | 15 | 175 | 8.0 | 14.5 | 0.00 | 0.51 | 0.00 | 59 | 1003.9 |
| 20260507143027 | 15 | 128 | 4.8 | 12.9 | 0.00 | 0.69 | 0.00 | 64 | 1003.9 |
| 20260507141524 | 14 | 271 | 4.8 | 16.1 | 0.00 | 0.69 | 0.00 | 69 | 1004.1 |
| 20260507140024 | 15 | 227 | 3.2 | 16.1 | 0.00 | 0.69 | 0.00 | 69 | 1004.2 |
| 20260507134520 | 16 | 250 | 6.4 | 16.1 | 0.00 | 0.69 | 0.00 | 66 | 1004.2 |
| 20260507133019 | 15 | 217 | 4.8 | 14.5 | 0.00 | 0.71 | 0.00 | 69 | 1004.3 |
| 20260507131520 | 15 | 223 | 4.8 | 14.5 | 0.00 | 0.71 | 0.00 | 65 | 1004.4 |
| 20260507130027 | 16 | 291 | 4.8 | 14.5 | 0.00 | 0.71 | 0.00 | 60 | 1004.5 |
| 20260507124520 | 15 | 202 | 3.2 | 12.9 | 0.00 | 0.71 | 0.00 | 62 | 1004.5 |
| 20260507123013 | 16 | 281 | 1.6 | 11.3 | 0.00 | 0.94 | 0.00 | 62 | 1004.5 |
| 20260507121512 | 16 | 232 | 3.2 | 19.3 | 0.00 | 0.94 | 0.00 | 65 | 1004.5 |
| 20260507120019 | 16 | 258 | 6.4 | 14.5 | 0.00 | 0.94 | 0.00 | 66 | 1004.6 |
| 20260507114507 | 16 | 249 | 8.0 | 14.5 | 0.00 | 0.94 | 0.00 | 66 | 1004.7 |
| 20260507113007 | 17 | 265 | 4.8 | 12.9 | 0.00 | 0.99 | 0.00 | 59 | 1004.8 |
| 20260507111507 | 17 | 289 | 4.8 | 11.3 | 0.00 | 0.99 | 0.00 | 66 | 1004.8 |
| 20260507110002 | 16 | 176 | 3.2 | 16.1 | 0.00 | 0.99 | 0.00 | 62 | 1004.9 |
| 20260507104557 | 15 | 248 | 1.6 | 12.9 | 0.00 | 0.99 | 0.00 | 64 | 1005.0 |
| 20260507103057 | 15 | 291 | 3.2 | 11.3 | 0.00 | 1.14 | 0.00 | 66 | 1005.0 |
| 20260507101557 | 15 | 238 | 3.2 | 11.3 | 0.00 | 1.14 | 0.00 | 66 | 1005.0 |
| 20260507100053 | 14 | 190 | 3.2 | 12.9 | 0.00 | 1.14 | 0.00 | 69 | 1005.1 |
| 20260507094548 | 13 | 13 | 4.8 | 9.7 | 0.00 | 1.14 | 0.00 | 72 | 1005.2 |
| 20260507093053 | 13 | 253 | 1.6 | 4.8 | 0.00 | 1.63 | 0.00 | 78 | 1005.2 |
| 20260507091547 | 13 | 311 | 1.6 | 6.4 | 0.00 | 1.63 | 0.00 | 77 | 1005.2 |
| 20260507090046 | 13 | 273 | 4.8 | 9.7 | 0.00 | 1.63 | 0.00 | 72 | 1005.2 |
| 20260507084546 | 14 | 263 | 1.6 | 8.0 | 0.00 | 1.63 | 0.00 | 69 | 1005.0 |
| 20260507083038 | 13 | 253 | 1.6 | 6.4 | 0.00 | 2.11 | 0.00 | 77 | 1004.9 |
| 20260507081537 | 13 | 263 | 3.2 | 11.3 | 0.00 | 2.11 | 0.00 | 76 | 1004.9 |
| 20260507080040 | 13 | 179 | 3.2 | 8.0 | 0.00 | 2.11 | 0.00 | 76 | 1004.8 |
| 20260507074503 | 12 | 279 | 3.2 | 12.9 | 0.00 | 2.11 | 0.00 | 79 | 1004.8 |
| 20260507073001 | 12 | 254 | 1.6 | 8.0 | 0.00 | 2.51 | 0.00 | 80 | 1004.8 |
| 20260507071611 | 12 | 275 | 3.2 | 11.3 | 0.00 | 2.51 | 0.00 | 78 | 1004.7 |
| 20260507070057 | 12 | 250 | 1.6 | 11.3 | 0.00 | 2.51 | 0.00 | 78 | 1004.5 |
| 20260507064554 | 12 | 233 | 8.0 | 14.5 | 0.00 | 2.51 | 0.00 | 81 | 1004.5 |
| 20260507063049 | 11 | 264 | 1.6 | 9.7 | 0.00 | 2.59 | 2.51 | 82 | 1004.6 |
| 20260507061545 | 10 | 265 | 3.2 | 6.4 | 0.00 | 2.59 | 2.51 | 84 | 1004.5 |
| 20260507060039 | 9 | 198 | 1.6 | 6.4 | 0.00 | 2.59 | 2.51 | 82 | 1004.6 |
| 20260507054533 | 8 | 251 | 0.0 | 4.8 | 0.00 | 2.59 | 2.51 | 79 | 1004.5 |
| 20260507053042 | 8 | 251 | 0.0 | 9.7 | 0.00 | 2.59 | 2.51 | 72 | 1004.3 |
| 20260507051531 | 7 | 250 | 1.6 | 11.3 | 0.00 | 2.59 | 2.51 | 62 | 1004.2 |
| 20260507050019 | 7 | 252 | 1.6 | 6.4 | 0.00 | 2.59 | 2.51 | 67 | 1004.1 |
| 20260507044513 | 7 | 259 | 0.0 | 6.4 | 0.00 | 2.59 | 2.51 | 59 | 1003.9 |
| 20260507043011 | 7 | 306 | 3.2 | 6.4 | 0.00 | 2.59 | 2.51 | 62 | 1003.8 |
| 20260507041503 | 7 | 271 | 1.6 | 4.8 | 0.00 | 2.59 | 2.51 | 67 | 1003.7 |
| 20260507034553 | 7 | 279 | 3.2 | 12.9 | 0.00 | 2.59 | 2.51 | 75 | 1003.6 |
| 20260507033051 | 7 | 302 | 6.4 | 14.5 | 0.00 | 2.59 | 2.51 | 75 | 1003.5 |
| 20260507031546 | 7 | 242 | 6.4 | 17.7 | 0.00 | 2.59 | 2.51 | 76 | 1003.5 |
| 20260507030038 | 8 | 235 | 4.8 | 14.5 | 0.00 | 2.59 | 2.51 | 74 | 1003.6 |
| 20260507024537 | 8 | 234 | 4.8 | 17.7 | 0.00 | 2.59 | 2.51 | 75 | 1003.4 |
| 20260507023034 | 8 | 290 | 4.8 | 20.9 | 0.00 | 2.59 | 2.51 | 79 | 1003.3 |
| 20260507021524 | 8 | 273 | 1.6 | 16.1 | 0.00 | 2.59 | 2.51 | 81 | 1003.3 |
| 20260507020021 | 8 | 223 | 1.6 | 17.7 | 0.00 | 2.59 | 2.51 | 80 | 1003.5 |
| 20260507014515 | 8 | 262 | 6.4 | 17.7 | 0.00 | 2.59 | 2.51 | 81 | 1003.3 |
| 20260507013008 | 8 | 234 | 9.7 | 29.0 | 0.00 | 2.59 | 2.51 | 80 | 1003.5 |
| 20260507011506 | 8 | 217 | 6.4 | 16.1 | 0.00 | 2.59 | 2.51 | 80 | 1003.4 |
| 20260507010107 | 8 | 317 | 3.2 | 29.0 | 0.00 | 2.59 | 2.51 | 81 | 1003.4 |
| 20260507004605 | 8 | 213 | 6.4 | 19.3 | 0.00 | 2.59 | 2.51 | 81 | 1003.7 |
| 20260507003049 | 8 | 194 | 8.0 | 22.5 | 0.00 | 2.59 | 2.51 | 79 | 1003.6 |
| 20260507001550 | 8 | 267 | 6.4 | 27.4 | 0.00 | 2.59 | 2.51 | 77 | 1003.6 |
| 20260507000037 | 8 | 276 | 8.0 | 25.7 | 0.00 | 2.59 | 2.51 | 79 | 1003.7 |
| 20260506234531 | 9 | 196 | 9.7 | 22.5 | 0.00 | 2.59 | 2.51 | 77 | 1003.8 |
| 20260506233027 | 9 | 166 | 9.7 | 24.1 | 0.00 | 2.59 | 2.51 | 69 | 1004.0 |
| 20260506231523 | 9 | 217 | 9.7 | 33.8 | 0.00 | 2.59 | 2.51 | 56 | 1004.2 |
| 20260506230015 | 9 | 234 | 8.0 | 24.1 | 0.00 | 2.59 | 2.51 | 45 | 1004.0 |
| 20260506224511 | 9 | 244 | 16.1 | 27.4 | 0.00 | 2.59 | 2.51 | 33 | 1004.3 |
| 20260506223008 | 9 | 246 | 12.9 | 27.4 | 0.00 | 2.59 | 2.51 | 32 | 1004.0 |
| 20260506221507 | 8 | 250 | 8.0 | 20.9 | 0.00 | 2.59 | 2.51 | 27 | 1004.1 |
| 20260506220057 | 8 | 290 | 6.4 | 20.9 | 0.00 | 2.59 | 2.51 | 27 | 1004.0 |
| 20260506214602 | 8 | 273 | 6.4 | 22.5 | 0.00 | 2.59 | 2.51 | 22 | 1004.0 |
| 20260506213049 | 8 | 277 | 3.2 | 19.3 | 0.00 | 2.59 | 2.51 | 18 | 1003.9 |
| 20260506211545 | 8 | 219 | 4.8 | 22.5 | 0.00 | 2.59 | 2.51 | 18 | 1003.8 |
| 20260506210037 | 8 | 252 | 11.3 | 24.1 | 0.00 | 2.59 | 2.51 | 20 | 1003.9 |
| 20260506204534 | 8 | 226 | 8.0 | 37.0 | 0.00 | 2.59 | 2.51 | 25 | 1004.0 |
| 20260506203030 | 8 | 255 | 12.9 | 35.4 | 0.00 | 2.59 | 2.51 | 29 | 1004.1 |
| 20260506201525 | 8 | 190 | 6.4 | 25.7 | 0.00 | 2.59 | 2.51 | 25 | 1003.8 |
| 20260506200021 | 8 | 222 | 8.0 | 25.7 | 0.03 | 2.59 | 2.51 | 21 | 1003.9 |
| 20260506194513 | 8 | 194 | 11.3 | 20.9 | 0.03 | 2.59 | 2.51 | 19 | 1003.8 |
| 20260506193008 | 8 | 296 | 12.9 | 25.7 | 0.05 | 2.59 | 2.51 | 15 | 1003.3 |
| 20260506191504 | 8 | 273 | 1.6 | 16.1 | 0.05 | 2.59 | 2.51 | 9 | 1003.0 |
| 20260506190059 | 8 | 231 | 6.4 | 25.7 | 0.05 | 2.59 | 2.49 | 8 | 1002.7 |
| 20260506184552 | 8 | 242 | 12.9 | 38.6 | 0.05 | 2.59 | 2.49 | 8 | 1002.5 |
| 20260506183052 | 8 | 345 | 4.8 | 24.1 | 0.33 | 2.59 | 2.46 | 10 | 1002.4 |
| 20260506181554 | 8 | 240 | 9.7 | 24.1 | 0.43 | 2.59 | 2.46 | 15 | 1002.7 |
| 20260506180053 | 8 | 243 | 11.3 | 29.0 | 0.46 | 2.59 | 2.46 | 17 | 1002.7 |
| 20260506174531 | 8 | 263 | 9.7 | 27.4 | 0.46 | 2.59 | 2.46 | 19 | 1002.5 |
| 20260506173028 | 9 | 267 | 8.0 | 17.7 | 0.10 | 2.29 | 2.11 | 11 | 1002.6 |